Temp
-4 -4 -4 -4 -4 -3 -3 -2 -2 -1 -1 -1 -1 -1 -1 -1 -1 -2 -1 -1 -2 -2 -2 -1 0 -0 0 1 -0 2 1 1 1 1 1 1 1 3 3 5 5 4 4 3 2 3 3 9 9 7 8 8 7 7
-4 -4 -4 -4 -3 -3 -2 -2 -2 -1 -1 -1 -1 -1 -1 -0 -1 -1 -2 -2 -2 -2 -1 -1 -1 -1 0 1 1 1 1 2 2 -0 0 1 1 1 2 2 5 4 5 4 5 5 7 8 8 8 8 7 7 7
-4 -3 -3 -3 -3 -2 -2 -2 -1 -1 -1 -1 -1 -1 -0 -0 -1 -1 -1 -1 -1 -1 -1 -1 -1 -1 -1 1 0 -1 -1 1 2 2 2 0 0 1 1 0 3 4 5 4 5 6 6 7 7 7 7 7 7 7
-4 -3 -3 -2 -2 -2 -2 -1 -1 -1 -1 -0 -1 -1 -1 -1 -1 -1 -1 -0 -1 -1 -2 0 1 1 2 2 -0 1 0 -0 1 1 1 0 -0 2 0 2 2 3 4 4 4 5 6 6 7 7 7 6 6 6
-4 -3 -3 -2 -2 -2 -2 -2 -1 -1 -1 -0 -0 -1 -1 -0 -0 -0 -0 -0 -0 -1 -1 -1 1 1 3 2 2 0 0 -0 -0 -0 -0 -0 1 0 1 1 1 3 3 2 3 5 5 5 6 6 6 6 6 5
-4 -3 -3 -3 -2 -2 -2 -2 -2 -1 -1 -1 -0 -0 -1 -1 -1 -1 -0 -0 0 -0 -1 -1 0 1 3 2 2 2 1 0 1 0 1 0 1 1 0 0 3 3 4 4 4 5 5 5 6 6 6 5 5 5
-4 -4 -3 -3 -3 -3 -2 -1 -2 -1 -1 -1 -1 -1 -1 -0 -1 -1 -0 -0 -0 -0 -1 -1 -1 2 3 3 2 1 1 0 0 -0 0 0 1 1 0 1 3 3 3 4 4 5 5 5 5 6 5 5 4 3
-5 -4 -4 -3 -3 -3 -2 -2 -1 -1 -1 -1 -1 -1 -0 -1 -1 -1 -0 -1 -1 -0 -1 -1 -1 2 4 3 2 2 1 1 0 0 0 1 1 1 0 2 3 3 3 3 4 5 5 5 5 5 5 4 3 2
-5 -5 -4 -3 -3 -2 -2 -1 -1 -1 -1 -1 -0 -1 -1 -1 -1 -1 -1 -1 -1 -1 -2 -1 -2 -1 4 4 3 2 2 1 1 0 1 1 1 1 3 4 4 4 4 4 4 4 4 5 4 4 3 2 1 1
-6 -6 -4 -3 -3 -2 -2 -1 -1 -1 -1 -0 -1 -0 -0 -1 -0 -1 -1 -1 -1 -1 -1 -1 1 -0 4 2 1 0 -0 1 1 1 1 0 2 4 4 3 3 4 4 4 4 3 3 3 3 1 1 2 1 -1
-6 -6 -3 -3 -2 -2 -2 -1 -1 -1 -1 -1 -0 -0 -1 -1 -1 -1 -1 -1 -1 -1 -2 -1 0 0 3 1 1 -0 0 -0 1 2 1 1 2 2 0 -0 -0 1 2 2 2 0 0 1 1 0 -1 -2 -2 -2
-6 -6 -4 -3 -2 -2 -2 -1 -1 -1 -1 -0 0 -1 -1 -1 -1 -0 -0 -1 -0 1 1 1 2 2 1 0 0 -0 1 1 2 1 1 3 1 -0 -1 -1 -1 1 1 1 -0 -2 -2 -1 -2 -2 -3 -3 -3 -3
-7 -6 -3 -2 -2 -2 -2 -2 -1 -1 -0 -0 -0 -0 -0 -1 0 0 1 1 -0 3 1 0 1 1 -0 -1 -0 0 1 1 1 2 2 1 -1 -2 -2 -3 -3 -2 -2 -2 -2 -2 -2 -3 -3 -3 -3 -3 -3 -4
-6 -6 -3 -2 -2 -2 -1 -2 -1 -1 -1 0 -0 -0 0 1 0 0 2 2 1 1 0 0 0 -0 -0 -0 -0 1 1 1 1 2 2 -1 -2 -3 -3 -4 -4 -4 -4 -4 -4 -4 -4 -4 -5 -4 -4 -4 -4 -4
-6 -5 -3 -2 -2 -1 -1 -2 -2 -1 -0 1 0 1 0 3 4 3 3 2 2 2 1 0 0 -0 0 0 0 1 2 2 2 1 -0 -2 -3 -3 -4 -4 -4 -4 -4 -5 -4 -4 -4 -4 -4 -5 -5 -4 -4 -5
-5 -4 -2 -1 -1 -1 -1 -2 -2 -1 0 2 2 2 4 2 0 1 2 2 2 0 0 0 1 1 1 1 2 2 3 3 1 -1 -2 -2 -3 -4 -4 -4 -4 -4 -4 -4 -4 -4 -4 -3 -3 -4 -5 -5 -5 -5
-6 -4 -3 -2 -1 -1 -1 -2 -2 -0 1 3 3 4 4 3 3 0 1 3 3 2 -0 2 2 3 1 2 4 1 1 -0 -1 -2 -3 -3 -3 -3 -4 -4 -4 -4 -3 -3 -3 -3 -4 -4 -4 -4 -5 -7 -7 -7
-6 -5 -4 -4 -3 -2 -2 -2 -1 2 3 4 2 4 4 4 3 3 3 4 4 4 4 3 5 3 2 4 1 0 -1 -2 -1 -2 -3 -3 -3 -4 -4 -4 -3 -3 -3 -4 -4 -5 -5 -5 -5 -6 -7 -8 -8 -8
-6 -6 -5 -4 -3 -2 -1 -0 0 1 4 5 5 4 4 4 3 3 3 4 4 4 4 4 3 2 1 1 -0 -1 -1 -2 -2 -3 -3 -3 -3 -4 -4 -4 -4 -4 -4 -5 -5 -5 -5 -4 -5 -6 -7 -7 -8 -8
-5 -4 -3 -3 -3 -2 -0 0 2 3 4 4 4 4 4 4 3 3 3 3 4 4 3 1 0 2 2 0 1 0 -1 -2 -3 -3 -3 -3 -4 -4 -4 -4 -4 -5 -5 -5 -5 -5 -5 -6 -6 -6 -6 -6 -7 -8
-5 -4 -4 -2 -2 -2 -1 3 3 3 4 5 4 4 3 3 3 3 3 3 3 4 -1 4 3 2 2 -0 -1 -1 -1 -1 -2 -3 -3 -4 -5 -5 -5 -5 -5 -5 -5 -5 -5 -5 -6 -7 -7 -7 -7 -8 -8 -8
-5 -4 -4 -3 -3 -1 -0 1 3 4 4 4 4 4 3 3 3 3 4 4 3 4 4 3 3 2 0 -1 -1 -2 -1 -1 -1 -2 -3 -4 -4 -5 -5 -5 -5 -5 -5 -5 -6 -6 -7 -7 -7 -7 -7 -8 -8 -8
-5 -4 -3 -2 -1 -2 -0 2 3 3 2 3 4 3 2 3 3 3 3 3 4 3 3 3 2 1 -0 -1 -2 -1 -1 -1 -1 -2 -4 -4 -4 -4 -5 -5 -5 -5 -5 -5 -6 -6 -6 -6 -6 -6 -7 -8 -8 -9
-5 -4 -3 -2 -1 -2 0 1 2 4 4 2 2 3 2 3 3 3 0 4 2 2 2 1 1 -0 -1 -1 -1 -0 -0 -0 -1 -2 -3 -3 -4 -4 -4 -5 -5 -5 -4 -5 -5 -5 -6 -6 -7 -7 -7 -7 -8 -9
-5 -3 -3 -5 -1 -2 -3 -2 0 2 -1 1 2 1 0 3 -1 -1 -0 1 1 1 1 1 1 0 0 -1 -0 -0 -0 -0 -0 -2 -3 -3 -3 -4 -4 -4 -5 -5 -5 -4 -5 -5 -6 -7 -8 -7 -7 -8 -8 -9
-5 -3 -5 -3 -3 -2 -1 -2 -2 -1 -0 -0 1 3 3 -1 -1 -1 -0 0 0 1 1 1 1 1 1 1 1 1 0 -1 -1 -2 -3 -3 -3 -4 -4 -4 -4 -5 -4 -4 -4 -5 -6 -7 -9 -9 -8 -9 -9 -9
-6 -6 -3 -2 -1 0 -1 1 1 -0 -1 -2 -1 -1 -2 -3 -3 -2 -2 -1 -1 -1 -1 -0 0 -1 -1 0 0 1 0 -0 -0 -0 -1 -3 -3 -4 -4 -4 -4 -4 -5 -5 -5 -5 -5 -6 -9 -9 -9 -9 -9 -9
-5 -3 -6 -1 -1 -0 -3 -2 -2 -2 -1 2 -0 -2 -2 -3 -3 -3 -3 -3 -3 -3 -4 -2 -2 -1 -1 -1 -0 -1 -1 -1 -1 -2 -3 -3 -3 -3 -4 -4 -4 -4 -4 -4 -5 -5 -6 -5 -7 -9 -9 -9 -10 -10
-4 -3 -2 -6 -2 -1 -1 -2 -2 1 0 1 -2 -3 -4 -4 -5 -4 -4 -5 -5 -5 -5 -5 -3 -2 -1 -1 -1 -2 -3 -2 -2 -2 -3 -3 -3 -3 -4 -4 -4 -4 -4 -5 -5 -5 -5 -5 -5 -7 -7 -8 -9 -9
-4 -3 -3 -4 -6 -4 -2 -1 -1 -1 -1 -1 -2 -4 -5 -6 -6 -5 -5 -5 -6 -5 -5 -5 -5 -5 -5 -5 -4 -4 -4 -3 -3 -3 -3 -3 -3 -3 -3 -4 -4 -4 -5 -5 -5 -5 -6 -7 -8 -8 -8 -9 -9 -9
-4 -3 -3 -3 -4 -2 -3 -2 -3 -2 -2 -3 -3 -3 -5 -6 -6 -6 -6 -6 -6 -6 -6 -6 -5 -5 -5 -5 -5 -5 -4 -4 -4 -4 -4 -4 -3 -3 -3 -4 -4 -4 -5 -5 -5 -5 -6 -7 -7 -7 -7 -8 -8 -8
-4 -4 -4 -5 -5 -5 -4 -4 -4 -4 -4 -3 -4 -5 -6 -5 -6 -7 -6 -6 -6 -6 -6 -6 -6 -6 -5 -5 -5 -5 -4 -4 -4 -4 -4 -4 -3 -3 -3 -4 -4 -4 -5 -5 -6 -6 -6 -6 -6 -7 -7 -7 -8 -8
-5 -4 -3 -3 -5 -5 -5 -4 -4 -3 -3 -3 -4 -4 -4 -4 -6 -7 -7 -6 -6 -6 -6 -7 -7 -6 -6 -5 -5 -5 -4 -4 -4 -4 -4 -4 -3 -3 -3 -4 -4 -4 -5 -5 -6 -6 -6 -6 -6 -6 -6 -7 -7 -7
Height
1472 1474 1476 1478 1481 1483 1485 1488 1490 1491 1493 1495 1497 1499 1501 1503 1506 1509 1508 1513 1515 1510 1505 1509 1509 1509 1508 1510 1507 1504 1505 1501 1498 1499 1496 1493 1489 1482 1479 1473 1473 1476 1478 1476 1479 1477 1476 1450 1451 1458 1448 1445 1444 1443
1469 1471 1473 1475 1477 1479 1482 1484 1486 1487 1488 1489 1491 1492 1494 1497 1500 1503 1502 1505 1508 1505 1498 1496 1497 1496 1500 1499 1502 1501 1501 1500 1498 1497 1497 1492 1487 1487 1483 1470 1467 1467 1463 1462 1462 1455 1447 1441 1448 1451 1445 1439 1435 1434
1465 1468 1469 1471 1473 1476 1478 1480 1481 1482 1483 1484 1484 1485 1487 1490 1493 1495 1496 1498 1500 1496 1488 1486 1481 1483 1487 1487 1491 1495 1489 1487 1490 1492 1491 1488 1486 1482 1477 1472 1464 1456 1453 1454 1451 1443 1442 1438 1441 1444 1440 1436 1433 1431
1462 1464 1465 1468 1471 1473 1474 1475 1477 1477 1478 1478 1479 1480 1482 1484 1487 1489 1489 1491 1493 1491 1482 1472 1473 1472 1472 1474 1476 1480 1473 1485 1486 1487 1487 1483 1481 1471 1465 1462 1459 1453 1452 1446 1444 1439 1434 1434 1434 1435 1431 1431 1428 1427
1459 1460 1463 1465 1467 1469 1470 1471 1472 1473 1474 1474 1475 1476 1478 1479 1481 1482 1481 1481 1483 1486 1476 1466 1464 1463 1465 1464 1464 1467 1470 1473 1477 1480 1477 1470 1464 1468 1456 1455 1446 1439 1437 1440 1432 1427 1428 1426 1423 1425 1424 1423 1424 1420
1456 1458 1460 1462 1464 1464 1465 1466 1468 1469 1469 1470 1471 1472 1473 1475 1477 1476 1474 1473 1473 1475 1472 1463 1456 1454 1454 1454 1456 1457 1459 1464 1470 1467 1462 1456 1455 1457 1447 1434 1417 1416 1421 1421 1418 1415 1416 1415 1415 1415 1416 1416 1416 1414
1452 1455 1457 1459 1460 1460 1461 1462 1464 1464 1465 1467 1468 1469 1469 1470 1470 1470 1468 1468 1468 1471 1467 1462 1452 1444 1443 1447 1449 1451 1454 1456 1458 1456 1452 1446 1440 1446 1433 1418 1390 1406 1407 1406 1407 1406 1405 1402 1401 1404 1405 1407 1407 1404
1448 1450 1453 1454 1456 1457 1458 1459 1460 1460 1461 1462 1463 1464 1464 1463 1463 1462 1461 1463 1466 1466 1465 1461 1452 1444 1440 1440 1443 1445 1447 1449 1444 1440 1437 1434 1432 1430 1415 1386 1385 1389 1390 1391 1389 1389 1389 1389 1390 1392 1395 1397 1399 1396
1442 1445 1447 1450 1451 1453 1454 1455 1456 1456 1457 1457 1457 1457 1459 1459 1459 1457 1455 1456 1458 1464 1459 1456 1453 1449 1438 1438 1441 1442 1441 1438 1434 1430 1426 1428 1418 1406 1383 1381 1378 1377 1377 1374 1375 1375 1376 1376 1377 1380 1383 1389 1391 1395
1436 1439 1441 1444 1447 1449 1450 1451 1452 1452 1453 1453 1454 1455 1454 1454 1454 1455 1455 1455 1456 1456 1453 1448 1446 1442 1439 1438 1439 1440 1436 1433 1426 1418 1415 1411 1393 1382 1381 1379 1373 1367 1365 1364 1361 1362 1364 1364 1367 1368 1370 1371 1373 1379
1433 1434 1437 1440 1443 1445 1446 1447 1449 1449 1448 1449 1450 1449 1451 1452 1454 1452 1453 1453 1453 1451 1445 1439 1437 1436 1436 1436 1437 1437 1431 1428 1420 1408 1409 1399 1388 1386 1381 1371 1363 1354 1347 1345 1351 1351 1349 1346 1351 1358 1356 1359 1368 1377
1428 1429 1431 1434 1438 1440 1442 1444 1446 1447 1445 1444 1445 1447 1450 1451 1450 1451 1448 1446 1445 1439 1433 1433 1432 1433 1432 1431 1432 1431 1427 1424 1413 1406 1401 1389 1389 1387 1379 1372 1362 1349 1344 1341 1343 1345 1336 1330 1342 1354 1359 1365 1373 1382
1424 1424 1426 1429 1432 1436 1439 1441 1443 1444 1443 1442 1442 1444 1444 1446 1445 1442 1439 1434 1433 1426 1429 1430 1432 1431 1430 1431 1430 1428 1423 1417 1409 1401 1394 1396 1398 1390 1383 1374 1366 1358 1353 1352 1354 1353 1350 1351 1360 1363 1368 1376 1381 1390
1420 1420 1421 1424 1427 1431 1435 1438 1440 1442 1443 1439 1436 1438 1436 1434 1432 1427 1425 1425 1426 1426 1427 1428 1429 1429 1428 1429 1427 1424 1415 1412 1407 1400 1397 1401 1399 1394 1388 1382 1374 1369 1366 1364 1365 1366 1365 1368 1374 1377 1384 1393 1398 1402
1415 1415 1415 1418 1422 1427 1432 1435 1437 1439 1439 1436 1430 1427 1425 1419 1419 1419 1420 1421 1421 1422 1424 1426 1427 1428 1425 1426 1424 1420 1414 1409 1403 1405 1408 1408 1403 1398 1393 1389 1385 1382 1380 1379 1379 1379 1381 1384 1389 1394 1400 1403 1407 1411
1411 1410 1411 1415 1418 1423 1428 1431 1433 1436 1434 1429 1421 1416 1414 1415 1417 1418 1418 1419 1419 1420 1422 1423 1422 1421 1420 1420 1417 1413 1408 1405 1409 1410 1410 1409 1407 1406 1402 1399 1396 1394 1392 1392 1392 1393 1394 1396 1400 1405 1411 1415 1418 1421
1408 1408 1409 1411 1415 1419 1423 1427 1430 1429 1424 1416 1411 1410 1410 1411 1412 1414 1414 1415 1417 1419 1419 1418 1416 1412 1410 1412 1405 1410 1415 1415 1413 1413 1412 1411 1410 1408 1407 1405 1404 1403 1401 1402 1403 1405 1405 1409 1412 1414 1416 1424 1427 1429
1406 1407 1407 1409 1413 1416 1419 1422 1422 1415 1411 1407 1406 1406 1407 1408 1409 1410 1411 1412 1414 1414 1413 1412 1410 1408 1411 1404 1410 1414 1415 1416 1415 1416 1414 1414 1413 1412 1411 1410 1410 1410 1410 1411 1412 1414 1416 1419 1421 1424 1427 1431 1433 1438
1400 1400 1402 1405 1409 1412 1414 1415 1415 1409 1402 1400 1400 1401 1403 1404 1406 1407 1408 1410 1411 1411 1411 1409 1408 1408 1409 1408 1410 1412 1414 1415 1416 1417 1417 1416 1417 1416 1416 1415 1416 1416 1414 1416 1418 1420 1424 1426 1427 1430 1434 1437 1436 1441
1394 1395 1398 1402 1405 1408 1406 1403 1403 1403 1397 1396 1396 1398 1399 1401 1403 1405 1406 1407 1408 1409 1408 1407 1406 1406 1407 1407 1407 1409 1411 1413 1415 1417 1419 1420 1419 1419 1419 1420 1421 1423 1423 1424 1425 1426 1430 1432 1436 1437 1439 1441 1443 1446
1390 1391 1393 1395 1400 1402 1400 1395 1394 1393 1392 1393 1393 1395 1397 1398 1400 1402 1404 1405 1406 1405 1403 1402 1403 1403 1404 1405 1406 1407 1409 1412 1413 1415 1417 1419 1421 1422 1423 1425 1426 1426 1426 1427 1429 1432 1435 1437 1439 1442 1445 1446 1448 1450
1389 1391 1392 1394 1395 1397 1395 1391 1389 1387 1388 1388 1389 1391 1393 1396 1397 1399 1401 1401 1401 1400 1400 1400 1401 1403 1403 1404 1405 1407 1410 1412 1414 1415 1416 1418 1420 1421 1423 1425 1428 1429 1431 1432 1434 1437 1439 1441 1443 1445 1446 1447 1449 1451
1388 1388 1389 1390 1392 1390 1387 1385 1385 1384 1385 1384 1386 1389 1391 1393 1393 1396 1397 1397 1396 1396 1397 1399 1400 1402 1403 1403 1405 1408 1410 1412 1413 1413 1415 1418 1420 1421 1423 1426 1429 1430 1432 1435 1436 1438 1440 1442 1444 1445 1447 1449 1451 1452
1385 1385 1385 1383 1383 1382 1381 1380 1380 1380 1379 1381 1384 1386 1386 1388 1391 1392 1394 1391 1392 1393 1395 1397 1399 1401 1404 1405 1406 1408 1409 1411 1412 1413 1414 1416 1418 1421 1424 1426 1429 1431 1433 1434 1436 1439 1441 1442 1444 1446 1447 1449 1451 1453
1383 1380 1379 1377 1375 1377 1378 1377 1376 1376 1379 1378 1380 1382 1383 1385 1390 1391 1389 1387 1388 1390 1393 1396 1398 1399 1401 1403 1405 1406 1408 1409 1410 1411 1413 1415 1417 1419 1422 1425 1427 1429 1430 1433 1435 1437 1440 1442 1443 1445 1447 1449 1451 1452
1376 1371 1371 1369 1370 1372 1372 1374 1373 1374 1374 1376 1376 1377 1380 1384 1389 1389 1383 1384 1385 1387 1390 1393 1396 1398 1400 1400 1401 1403 1406 1407 1408 1409 1411 1412 1414 1416 1418 1421 1424 1426 1428 1431 1433 1435 1438 1440 1442 1444 1447 1449 1451 1453
1370 1366 1364 1364 1364 1364 1365 1366 1367 1368 1372 1375 1374 1378 1381 1388 1388 1382 1382 1383 1385 1387 1389 1391 1393 1395 1396 1397 1399 1401 1403 1405 1406 1408 1409 1410 1413 1415 1417 1419 1421 1423 1425 1428 1431 1433 1435 1436 1439 1442 1445 1448 1450 1452
1363 1361 1362 1361 1362 1362 1364 1364 1365 1366 1366 1367 1370 1376 1377 1379 1379 1380 1380 1382 1384 1385 1386 1387 1390 1392 1394 1396 1398 1399 1402 1404 1406 1407 1408 1410 1412 1414 1416 1419 1421 1423 1424 1426 1429 1431 1434 1435 1437 1440 1443 1446 1449 1451
1359 1357 1359 1360 1362 1361 1361 1362 1362 1362 1362 1362 1366 1370 1374 1375 1377 1378 1379 1381 1382 1384 1386 1386 1388 1389 1391 1393 1395 1397 1399 1401 1403 1404 1406 1407 1409 1411 1413 1416 1418 1420 1422 1424 1427 1430 1432 1434 1436 1439 1441 1444 1447 1450
1355 1356 1357 1357 1360 1359 1358 1358 1359 1360 1361 1362 1364 1369 1373 1376 1377 1378 1380 1381 1382 1383 1384 1386 1387 1387 1388 1389 1391 1393 1395 1397 1399 1402 1403 1405 1406 1410 1411 1413 1415 1418 1420 1422 1425 1427 1430 1433 1435 1437 1440 1443 1445 1447
1351 1352 1353 1353 1354 1354 1355 1357 1358 1360 1361 1363 1364 1366 1370 1374 1377 1378 1379 1380 1381 1383 1384 1385 1386 1387 1388 1388 1389 1391 1393 1394 1396 1399 1401 1403 1404 1406 1408 1411 1413 1415 1417 1420 1422 1424 1427 1430 1432 1435 1437 1440 1442 1444
1346 1346 1348 1350 1351 1353 1355 1356 1358 1359 1361 1363 1365 1367 1371 1372 1375 1377 1378 1379 1381 1382 1383 1384 1385 1386 1387 1388 1388 1390 1391 1392 1394 1396 1398 1400 1401 1403 1404 1407 1410 1412 1414 1417 1420 1423 1425 1428 1430 1433 1435 1438 1440 1442
1342 1343 1344 1345 1348 1350 1353 1355 1356 1357 1359 1360 1362 1364 1366 1368 1371 1374 1375 1376 1378 1380 1381 1382 1383 1384 1385 1386 1387 1388 1389 1391 1391 1393 1395 1397 1399 1400 1401 1403 1406 1409 1412 1414 1417 1420 1423 1425 1428 1430 1432 1435 1437 1439
Wind_Speed
17 18 14 17 16 16 18 19 18 16 17 18 19 21 22 21 21 22 27 25 26 24 34 28 23 30 30 24 10 11 10 10 5 7 4 3 3 6 9 18 18 13 9 10 4 7 16 14 15 12 16 33 29 32
17 12 12 14 14 15 14 13 14 16 18 20 22 23 24 24 24 24 32 29 30 34 18 5 22 35 44 39 31 25 16 19 6 3 3 4 3 4 9 6 6 13 13 12 10 9 11 31 22 27 41 37 36 34
12 13 14 14 13 13 13 12 14 15 17 18 20 21 22 22 21 22 28 28 29 31 34 36 36 40 42 44 43 29 26 29 21 22 13 3 6 3 6 4 7 7 18 13 14 14 17 28 29 28 32 32 36 36
14 14 12 12 12 13 14 15 15 16 17 16 15 14 15 18 20 22 28 30 30 14 7 18 25 30 34 31 38 44 51 39 31 27 14 6 6 9 6 9 9 12 8 15 17 19 28 31 35 34 37 28 38 32
12 11 12 12 13 14 14 16 16 15 12 12 13 13 14 15 17 21 26 26 27 28 5 8 11 13 17 23 27 38 42 39 30 18 8 9 12 10 16 12 13 25 21 13 16 27 23 28 39 38 37 34 30 24
14 15 15 14 16 17 16 15 13 13 12 11 13 10 11 14 16 16 9 24 27 26 9 3 8 12 19 31 29 29 38 40 30 16 9 18 33 12 5 11 29 40 36 45 33 42 37 38 39 38 34 27 29 32
19 18 15 15 15 12 12 12 12 12 12 13 15 16 16 19 19 24 8 4 2 16 7 6 5 8 18 25 30 31 27 22 24 25 21 32 31 16 6 17 34 33 35 39 39 39 39 41 34 32 32 28 25 32
20 20 20 20 16 13 12 11 12 11 11 13 16 18 19 12 10 20 27 27 21 19 7 3 4 5 8 11 12 20 21 21 11 11 9 10 15 12 10 29 43 40 39 44 47 41 35 36 39 38 34 28 23 21
21 22 24 21 16 12 11 11 11 12 11 15 17 12 10 11 9 11 11 9 20 14 4 4 2 3 2 8 6 3 7 4 10 6 6 7 5 8 22 27 33 35 34 39 40 38 37 31 27 29 27 20 26 15
14 19 19 20 16 14 11 11 11 9 14 14 10 6 6 5 5 8 4 4 7 7 7 4 5 3 2 1 4 3 5 2 3 6 5 5 11 37 37 41 44 43 41 34 26 22 25 32 32 27 32 41 29 38
13 17 18 20 17 14 12 12 8 10 7 12 8 5 7 8 9 2 3 3 5 4 7 8 17 9 8 3 3 7 2 3 3 4 5 3 3 5 28 32 31 26 29 37 27 23 31 40 35 15 30 44 49 47
14 15 19 20 18 14 13 12 8 6 6 4 7 9 10 6 5 3 3 3 4 4 9 4 4 7 4 7 4 4 3 2 5 1 3 2 2 22 27 23 23 19 12 1 2 21 25 30 40 45 47 49 48 48
13 14 18 20 19 16 14 12 8 4 6 7 5 6 6 5 6 5 6 4 3 0 6 4 1 3 2 4 3 2 4 5 4 3 2 2 15 20 18 14 16 17 17 23 24 30 39 44 43 46 48 46 45 43
12 15 18 20 20 19 15 12 9 5 10 5 6 5 5 4 5 5 2 2 3 5 7 7 3 4 3 2 2 3 3 2 3 3 4 7 18 18 18 17 20 26 29 33 36 38 42 45 44 44 43 41 41 40
12 14 17 21 22 20 17 13 10 7 6 6 5 5 6 10 4 1 3 3 7 6 5 3 3 6 2 2 2 3 3 3 1 3 4 13 14 13 15 18 24 28 32 35 36 39 40 40 39 37 35 36 37 38
9 11 11 16 19 20 18 13 13 9 5 6 8 3 5 2 2 3 5 5 6 7 6 4 2 3 4 2 4 5 2 2 3 2 7 8 10 11 15 19 24 26 29 32 34 35 35 35 34 35 33 33 34 33
6 3 2 6 13 17 17 16 10 9 7 5 7 12 9 5 8 9 8 10 10 8 2 3 3 5 1 2 2 3 2 1 3 5 4 5 8 12 15 19 22 24 26 27 28 28 32 33 33 33 36 34 32 29
6 3 7 6 7 12 14 15 7 7 8 14 5 11 11 9 7 7 8 6 4 6 2 2 5 2 2 2 2 2 4 4 5 5 6 8 9 11 14 17 19 20 22 23 26 29 30 30 33 35 33 30 29 27
14 15 17 15 11 13 8 12 14 5 8 8 13 7 9 9 10 10 8 5 4 5 5 4 3 1 1 3 5 12 11 14 13 10 9 7 7 9 11 14 16 18 21 24 25 25 25 26 28 28 27 26 27 23
8 11 21 19 17 10 5 7 13 8 4 6 9 11 11 11 10 9 8 7 5 3 2 2 2 2 2 2 1 5 13 16 17 17 14 9 6 6 9 14 17 20 20 19 20 22 24 24 22 21 20 20 21 21
4 6 10 19 23 14 5 5 8 7 8 7 12 14 7 14 14 12 11 10 7 3 2 3 3 3 7 4 3 10 16 16 15 15 18 17 14 13 15 18 20 19 18 19 20 21 21 21 19 19 20 19 17 17
5 4 5 15 7 7 7 7 5 4 5 5 15 15 5 5 6 11 8 8 4 6 4 6 4 5 4 7 9 13 17 13 10 10 15 18 18 16 19 20 19 17 17 19 21 24 23 22 20 18 17 17 15 16
6 8 7 9 7 5 6 11 5 4 2 4 11 5 4 6 8 10 4 6 7 9 10 9 8 6 4 9 13 16 15 12 11 9 17 16 13 12 16 18 18 18 19 18 20 20 19 18 16 15 15 15 16 17
7 6 5 6 10 5 3 3 5 5 5 4 5 4 4 6 11 3 3 6 10 15 14 12 10 12 13 13 14 14 12 11 9 10 15 16 16 15 16 17 17 15 15 17 16 15 14 16 14 15 15 16 17 17
4 7 6 6 7 4 3 2 3 3 4 4 5 2 3 5 2 3 3 6 17 17 16 17 12 11 14 15 12 13 13 13 12 13 16 17 16 15 15 14 15 17 17 16 14 15 16 16 15 17 16 17 18 17
6 6 8 6 4 5 5 4 5 4 3 2 3 6 4 3 3 4 1 6 18 22 22 19 16 11 9 14 20 17 15 14 11 13 16 19 20 19 20 20 19 20 17 15 16 18 19 19 20 19 17 17 18 17
4 5 6 7 6 5 3 4 5 3 3 4 3 3 2 4 5 2 6 8 12 15 16 18 17 11 12 14 15 16 15 14 10 5 5 15 17 18 18 20 20 18 17 17 17 17 17 19 22 21 17 18 19 17
6 5 5 7 2 3 2 1 3 4 3 6 8 4 7 6 3 5 6 10 9 12 11 10 15 17 15 14 15 17 14 12 11 9 7 11 14 14 16 14 13 14 12 14 15 15 17 16 21 22 19 20 21 18
5 5 4 2 3 4 6 4 3 4 3 12 5 2 3 4 6 7 9 10 10 9 8 8 10 13 14 17 19 18 13 14 15 16 13 14 16 17 17 16 16 16 16 16 15 15 16 16 17 18 18 18 19 18
5 11 5 7 3 4 4 5 5 6 3 5 9 7 6 7 6 6 8 9 10 10 9 7 6 5 5 6 13 18 17 19 18 17 16 15 16 16 18 18 18 17 18 19 19 19 18 18 18 19 19 20 20 20
6 14 5 6 4 4 6 9 7 8 8 5 7 7 9 9 9 8 9 10 12 11 10 9 8 7 7 7 7 9 12 15 18 16 14 13 11 13 17 18 18 19 19 21 22 23 23 23 22 21 20 21 20 20
11 10 6 4 3 8 8 7 8 5 7 6 6 7 9 7 6 10 14 13 12 13 12 10 10 10 9 9 8 9 9 9 14 16 13 13 12 12 15 20 20 22 20 22 24 24 23 23 23 22 21 20 19 18
12 10 12 7 5 7 8 9 9 6 7 9 7 12 10 8 5 11 15 16 18 16 13 12 10 9 9 11 11 10 10 9 8 12 15 14 12 11 12 16 20 22 20 20 23 23 23 24 23 22 20 19 19 18
Wind_Direction
237 246 240 219 230 235 240 244 248 250 255 260 259 259 256 254 251 245 250 242 234 247 255 251 249 246 251 259 263 257 315 290 238 209 225 234 233 225 238 245 248 246 250 257 243 251 267 271 266 251 287 318 322 324
242 219 224 226 232 238 232 237 252 262 266 267 263 258 256 256 252 245 250 254 252 244 245 273 254 255 245 252 251 259 249 266 247 320 326 308 334 325 301 279 285 260 245 251 225 244 264 286 298 300 295 300 307 315
204 222 231 238 230 224 235 256 264 269 273 272 269 262 256 251 245 242 248 254 254 247 257 254 251 259 257 245 243 255 255 248 258 259 278 257 244 212 258 254 284 267 267 273 275 271 279 285 292 290 289 291 300 312
226 237 231 217 230 245 253 260 269 274 279 272 267 258 251 249 249 245 246 250 246 253 260 272 269 258 274 267 246 242 250 252 259 270 271 260 262 230 249 250 254 253 307 263 271 270 273 274 273 278 285 294 305 302
231 218 215 227 241 251 259 271 268 266 266 267 257 247 247 256 259 258 256 259 261 228 271 263 247 258 282 256 252 237 241 243 243 250 235 248 250 249 258 264 254 253 250 247 248 251 252 263 272 279 280 285 291 308
213 219 229 239 245 251 256 257 257 255 259 257 248 254 263 268 272 262 262 264 247 243 251 271 264 261 263 249 248 238 235 237 236 238 249 248 245 231 243 252 253 253 252 246 251 258 260 263 268 274 278 285 295 296
236 240 235 245 255 260 252 254 248 250 258 254 256 260 271 283 257 229 220 180 178 229 242 284 272 271 260 242 237 234 237 228 231 238 239 249 250 241 259 262 259 264 257 255 255 261 268 265 261 267 277 279 289 284
236 238 243 245 251 247 253 250 246 253 265 265 263 270 277 260 237 238 248 254 264 217 206 254 266 264 212 210 220 227 226 231 229 231 234 238 262 222 249 250 261 261 260 258 256 252 248 259 264 268 266 274 269 302
229 239 241 234 239 249 252 250 242 256 265 281 285 257 216 233 241 265 271 224 231 220 224 213 231 267 150 220 202 222 215 233 235 230 242 215 225 231 251 270 269 264 258 258 260 258 256 252 258 265 258 251 270 239
230 232 227 227 235 243 251 240 245 253 284 278 203 191 210 212 194 111 108 148 193 224 229 241 245 269 262 159 199 196 223 244 255 228 206 222 247 252 273 279 279 277 274 269 262 255 259 264 257 245 259 267 253 157
246 233 226 226 229 235 237 234 222 285 250 185 195 209 184 173 171 231 169 189 188 245 223 232 220 235 257 167 194 217 251 241 254 245 186 243 267 0 333 323 316 307 283 268 267 282 273 263 248 254 131 130 139 137
250 238 227 223 222 226 233 218 237 276 242 232 201 148 155 189 221 214 200 216 204 236 180 203 203 215 240 201 168 212 239 231 257 281 231 256 26 340 337 337 339 329 326 133 115 88 90 110 129 126 122 123 125 131
256 247 229 218 218 219 228 224 237 279 195 186 210 163 178 203 217 216 208 218 214 110 170 166 239 241 243 225 231 251 237 235 306 239 262 56 337 339 351 5 38 73 98 108 107 107 110 113 119 124 122 128 132 133
260 256 233 220 220 217 220 229 227 248 216 255 189 174 209 187 230 200 221 163 205 186 197 198 175 212 207 190 232 260 255 306 274 273 18 350 354 10 34 56 73 76 89 95 98 105 109 112 111 120 125 131 130 126
285 262 234 221 220 213 215 223 224 228 226 242 215 214 215 226 213 110 261 223 225 229 213 156 204 201 196 240 219 275 252 252 309 19 333 347 15 29 51 70 83 88 94 96 103 104 108 112 113 113 118 121 122 125
294 278 246 221 212 208 210 215 225 226 236 236 230 240 206 141 228 270 218 231 210 175 179 212 225 199 203 221 212 224 263 342 344 354 357 12 37 64 78 92 99 103 105 108 110 113 115 114 114 114 115 115 116 117
288 217 169 175 198 201 203 210 212 213 234 226 233 229 220 211 214 217 210 223 210 183 220 173 237 225 181 237 223 37 33 329 330 59 71 81 86 91 98 103 108 112 112 109 111 111 112 115 119 120 115 118 118 118
240 220 194 191 181 181 198 207 235 228 234 229 205 210 219 225 212 210 227 222 218 224 237 226 297 252 219 281 43 126 134 161 171 141 123 121 109 109 111 116 115 113 112 113 117 120 124 127 123 120 123 126 121 119
244 239 227 217 200 180 199 208 221 252 246 229 216 210 217 224 230 222 210 220 263 272 282 285 258 239 85 70 124 140 145 148 139 134 136 143 132 122 123 119 119 118 116 120 126 129 131 133 131 131 131 134 133 140
277 240 228 214 202 197 241 216 202 222 253 216 205 203 208 217 212 224 227 233 255 264 242 229 190 126 134 220 60 162 163 164 144 134 141 150 160 143 132 132 129 126 128 134 130 133 134 131 133 138 143 146 146 147
242 215 201 196 193 209 260 222 197 218 210 216 203 202 200 213 212 212 238 226 227 229 246 167 114 335 300 186 180 162 165 165 166 166 164 158 158 150 148 146 143 146 145 140 139 139 140 140 147 151 156 156 150 144
172 177 161 176 183 211 245 246 243 262 183 207 190 190 157 158 175 204 222 195 205 218 199 176 183 260 208 182 175 170 162 163 175 178 162 160 156 156 156 154 153 155 157 156 153 154 159 163 164 163 161 154 153 147
201 189 181 189 208 227 241 215 223 204 211 193 172 161 157 176 199 182 201 217 213 205 199 191 192 203 194 163 158 161 171 179 184 187 169 167 170 170 164 166 167 165 164 164 175 175 170 170 173 172 167 159 159 156
198 195 213 209 206 226 203 224 212 210 199 164 162 190 174 149 151 174 219 201 186 174 170 171 180 160 156 162 170 177 179 186 199 190 180 173 174 178 177 176 178 182 189 187 191 187 187 184 187 184 176 171 169 167
197 217 195 227 206 157 185 213 228 199 176 188 178 170 148 130 137 203 230 166 170 178 180 174 181 184 183 189 186 184 196 209 225 196 191 190 185 182 182 184 186 191 204 204 200 200 197 197 202 191 185 181 179 177
220 214 188 199 202 170 192 183 195 179 144 156 178 125 136 126 140 230 205 142 173 176 179 186 186 187 196 209 196 197 202 206 226 212 202 198 198 198 189 187 189 201 214 216 218 204 204 204 196 192 186 185 187 185
234 233 208 221 201 208 191 168 162 140 153 176 147 128 119 154 218 190 161 166 172 176 191 201 189 175 158 154 182 201 203 212 230 257 232 212 208 206 206 199 201 209 212 210 215 222 216 214 194 194 191 190 195 197
242 266 180 185 201 217 155 188 163 167 174 165 139 169 180 191 186 160 184 184 194 210 203 187 189 196 195 179 170 170 177 191 208 221 201 197 208 210 210 216 221 223 232 217 216 216 215 224 200 197 200 194 197 202
235 214 202 146 207 245 195 188 210 206 203 178 156 132 121 116 151 176 177 183 180 181 167 181 192 200 208 206 200 192 194 203 204 206 209 202 202 205 207 213 214 213 213 207 206 209 219 207 198 199 202 200 202 205
223 200 199 182 178 210 185 197 163 177 182 138 135 118 107 129 156 182 178 190 175 165 168 172 193 197 205 212 210 206 205 203 204 212 218 219 218 208 209 212 212 211 209 201 199 197 189 189 191 196 198 200 205 206
194 196 207 189 200 174 181 186 171 169 148 127 134 144 141 140 153 168 183 173 159 153 154 159 165 171 173 174 184 194 205 210 207 207 210 217 220 219 216 215 216 215 212 206 200 196 194 195 201 202 203 207 209 211
200 193 187 176 124 159 169 173 173 160 165 155 152 148 140 143 150 180 180 172 174 173 173 169 171 173 180 184 183 187 195 200 207 209 210 211 215 221 216 212 212 212 213 209 204 204 204 207 209 211 211 213 215 216
203 207 214 195 138 163 181 173 187 186 178 183 169 170 172 157 143 183 181 187 194 197 196 190 190 191 185 186 192 203 210 215 215 208 208 210 210 216 219 209 205 208 210 209 206 209 210 212 215 218 220 220 220 222